,,Stat6,,Stat2,,Stat8,,Stat9,,Stat10,,Wind1,,Wind1,
time,status,PA1M_AVG,status,PR1M_SUM,status,RH1M_AVG,status,SR1M_AVG,status,TA1M_AVG,status,W1dAve1m,status,W1sAve1m,
2005-05-29, 00:00:00,VALID,917.829,VALID,0,VALID,100,VALID,-0.0339617,VALID,19.6411,VALID,123,VALID,0.974306,
2005-05-29, 00:01:00,VALID,917.824,VALID,0,VALID,100,VALID,-0.0509425,VALID,19.6665,VALID,115,VALID,1.43877,
2005-05-29, 00:02:00,VALID,917.833,VALID,0,VALID,100,VALID,0,VALID,19.7084,VALID,111,VALID,1.21621,
2005-05-29, 00:03:00,VALID,917.817,VALID,0,VALID,100,VALID,-0.0339617,VALID,19.7082,VALID,99,VALID,1.06037,
2005-05-29, 00:04:00,VALID,917.835,VALID,0,VALID,100,VALID,-0.0169808,VALID,19.7248,VALID,76,VALID,1.28144,
2005-05-29, 00:05:00,VALID,917.815,VALID,0,VALID,100,VALID,0,VALID,19.6987,VALID,69,VALID,1.1157,
2005-05-29, 00:06:00,VALID,917.821,VALID,0,VALID,100,VALID,0,VALID,19.6699,VALID,74,VALID,0.975818,
2005-05-29, 00:07:00,VALID,917.801,VALID,0,VALID,100,VALID,0,VALID,19.624,VALID,73,VALID,0.828683,
2005-05-29, 00:08:00,VALID,917.794,VALID,0,VALID,100,VALID,0.0169808,VALID,19.6049,VALID,84,VALID,0.84593,
2005-05-29, 00:09:00,VALID,917.781,VALID,0,VALID,100,VALID,0,VALID,19.5693,VALID,68,VALID,0.769259,
2005-05-29, 00:10:00,VALID,917.762,VALID,0,VALID,100,VALID,0.0169808,VALID,19.514,VALID,59,VALID,0.675967,
2005-05-29, 00:11:00,VALID,917.753,VALID,0,VALID,100,VALID,0.0169808,VALID,19.5202,VALID,61,VALID,0.841933,
2005-05-29, 00:12:00,VALID,917.745,VALID,0,VALID,100,VALID,0.0339617,VALID,19.5142,VALID,55,VALID,0.760817,
2005-05-29, 00:13:00,VALID,917.748,VALID,0,VALID,100,VALID,0.0169808,VALID,19.5075,VALID,55,VALID,0.237926,
2005-05-29, 00:14:00,VALID,917.742,VALID,0,VALID,100,VALID,0,VALID,19.5117,VALID,55,VALID,0.0575457,
2005-05-29, 00:15:00,VALID,917.729,VALID,0,VALID,100,VALID,0,VALID,19.508,VALID,55,VALID,0.0181641,
2005-05-29, 00:16:00,VALID,917.721,VALID,0,VALID,100,VALID,0,VALID,19.5142,VALID,55,VALID,0.384993,
2005-05-29, 00:17:00,VALID,917.73,VALID,0,VALID,100,VALID,0,VALID,19.5341,VALID,69,VALID,0.710136,
2005-05-29, 00:18:00,VALID,917.753,VALID,0,VALID,100,VALID,0,VALID,19.5462,VALID,108,VALID,0.90024,
2005-05-29, 00:19:00,VALID,917.783,VALID,0,VALID,100,VALID,0,VALID,19.5537,VALID,109,VALID,0.703125,
2005-05-29, 00:20:00,VALID,917.82,VALID,0,VALID,100,VALID,0.0339617,VALID,19.5209,VALID,109,VALID,0.738621,
2005-05-29, 00:21:00,VALID,917.842,VALID,0,VALID,100,VALID,0,VALID,19.502,VALID,116,VALID,0.892708,
2005-05-29, 00:22:00,VALID,917.857,VALID,0,VALID,100,VALID,-0.0169808,VALID,19.4921,VALID,110,VALID,0.858132,
2005-05-29, 00:23:00,VALID,917.857,VALID,0,VALID,100,VALID,-0.0169808,VALID,19.4958,VALID,78,VALID,0.656445,
2005-05-29, 00:24:00,VALID,917.845,VALID,0,VALID,100,VALID,0,VALID,19.467,VALID,56,VALID,0.616425,
2005-05-29, 00:25:00,VALID,917.843,VALID,0,VALID,100,VALID,-0.0339617,VALID,19.4568,VALID,34,VALID,0.690589,
2005-05-29, 00:26:00,VALID,917.833,VALID,0,VALID,100,VALID,-0.0679233,VALID,19.4702,VALID,28,VALID,0.599657,
2005-05-29, 00:27:00,VALID,917.824,VALID,0,VALID,100,VALID,-0.0169808,VALID,19.4993,VALID,19,VALID,0.620164,
2005-05-29, 00:28:00,VALID,917.822,VALID,0,VALID,100,VALID,0,VALID,19.502,VALID,20,VALID,0.652902,
2005-05-29, 00:29:00,VALID,917.8,VALID,0,VALID,100,VALID,-0.0339617,VALID,19.5018,VALID,38,VALID,0.717262,
2005-05-29, 00:30:00,VALID,917.782,VALID,0,VALID,100,VALID,-0.0169808,VALID,19.4822,VALID,45,VALID,1.30196,
2005-05-29, 00:31:00,VALID,917.772,VALID,0,VALID,100,VALID,0,VALID,19.4469,VALID,57,VALID,0.963601,
2005-05-29, 00:32:00,VALID,917.742,VALID,0,VALID,100,VALID,-0.0169808,VALID,19.4312,VALID,72,VALID,0.897135,
2005-05-29, 00:33:00,VALID,917.728,VALID,0,VALID,100,VALID,0,VALID,19.4176,VALID,73,VALID,0.979106,
2005-05-29, 00:34:00,VALID,917.703,VALID,0,VALID,100,VALID,0.0169808,VALID,19.4119,VALID,66,VALID,0.545277,
2005-05-29, 00:35:00,VALID,917.689,VALID,0,VALID,100,VALID,0,VALID,19.3885,VALID,66,VALID,0.384411,
2005-05-29, 00:36:00,VALID,917.683,VALID,0,VALID,100,VALID,0.0169808,VALID,19.3955,VALID,66,VALID,0,
2005-05-29, 00:37:00,VALID,917.685,VALID,0,VALID,100,VALID,0.0169808,VALID,19.3726,VALID,66,VALID,0,
2005-05-29, 00:38:00,VALID,917.688,VALID,0,VALID,100,VALID,0.0339617,VALID,19.3629,VALID,66,VALID,0,
2005-05-29, 00:39:00,VALID,917.672,VALID,0,VALID,100,VALID,0,VALID,19.3597,VALID,66,VALID,0.0909091,
2005-05-29, 00:40:00,VALID,917.646,VALID,0,VALID,100,VALID,-0.0169808,VALID,19.3535,VALID,66,VALID,0.0266768,
2005-05-29, 00:41:00,VALID,917.629,VALID,0,VALID,100,VALID,0,VALID,19.3475,VALID,66,VALID,0.0649771,
2005-05-29, 00:42:00,VALID,917.588,VALID,0,VALID,100,VALID,0,VALID,19.3535,VALID,66,VALID,0.25093,
2005-05-29, 00:43:00,VALID,917.539,VALID,0,VALID,100,VALID,0,VALID,19.3629,VALID,66,VALID,0.464666,
2005-05-29, 00:44:00,VALID,917.501,VALID,0,VALID,100,VALID,0,VALID,19.4019,VALID,66,VALID,0.446075,
2005-05-29, 00:45:00,VALID,917.485,VALID,0,VALID,100,VALID,-0.0169808,VALID,19.3957,VALID,66,VALID,0.167969,
2005-05-29, 00:46:00,VALID,917.464,VALID,0,VALID,100,VALID,0,VALID,19.3602,VALID,66,VALID,0,
2005-05-29, 00:47:00,VALID,917.466,VALID,0,VALID,100,VALID,0,VALID,19.3475,VALID,66,VALID,0.000710227,
2005-05-29, 00:48:00,VALID,917.481,VALID,0,VALID,100,VALID,0,VALID,19.2785,VALID,65,VALID,0.247954,
2005-05-29, 00:49:00,VALID,917.489,VALID,0,VALID,100,VALID,-0.0169808,VALID,19.3436,VALID,66,VALID,0.13186,
2005-05-29, 00:50:00,VALID,917.51,VALID,0,VALID,100,VALID,0,VALID,19.3989,VALID,66,VALID,0.00407609,
2005-05-29, 00:51:00,VALID,917.503,VALID,0,VALID,100,VALID,0,VALID,19.3952,VALID,66,VALID,0,
2005-05-29, 00:52:00,VALID,917.5,VALID,0,VALID,100,VALID,-0.0169808,VALID,19.4215,VALID,66,VALID,0,
2005-05-29, 00:53:00,VALID,917.495,VALID,0,VALID,100,VALID,0,VALID,19.4014,VALID,66,VALID,0.161644,
2005-05-29, 00:54:00,VALID,917.474,VALID,0,VALID,100,VALID,0,VALID,19.3503,VALID,66,VALID,0.548209,
2005-05-29, 00:55:00,VALID,917.452,VALID,0,VALID,100,VALID,-0.0169808,VALID,19.3212,VALID,68,VALID,0.441406,
2005-05-29, 00:56:00,VALID,917.445,VALID,0,VALID,100,VALID,0,VALID,19.2988,VALID,68,VALID,0.420351,
2005-05-29, 00:57:00,VALID,917.432,VALID,0,VALID,100,VALID,0.0169808,VALID,19.315,VALID,73,VALID,0.426711,
2005-05-29, 00:58:00,VALID,917.435,VALID,0,VALID,100,VALID,0,VALID,19.3212,VALID,87,VALID,0.415879,
2005-05-29, 00:59:00,VALID,917.439,VALID,0,VALID,100,VALID,0,VALID,19.3185,VALID,87,VALID,0.54127,
2005-05-29, 01:00:00,VALID,917.461,VALID,0,VALID,100,VALID,0,VALID,19.3736,VALID,14,VALID,0.541061,
2005-05-29, 01:01:00,VALID,917.476,VALID,0,VALID,100,VALID,0,VALID,19.3962,VALID,276,VALID,0.119048,
2005-05-29, 01:02:00,VALID,917.472,VALID,0,VALID,100,VALID,0,VALID,19.4022,VALID,276,VALID,0,
2005-05-29, 01:03:00,VALID,917.479,VALID,0,VALID,100,VALID,-0.0339617,VALID,19.4218,VALID,276,VALID,0,
2005-05-29, 01:04:00,VALID,917.477,VALID,0,VALID,100,VALID,-0.0339617,VALID,19.2986,VALID,276,VALID,0.0223474,
2005-05-29, 01:05:00,VALID,917.505,VALID,0,VALID,100,VALID,0,VALID,19.1829,VALID,276,VALID,0.290737,
2005-05-29, 01:06:00,VALID,917.536,VALID,0,VALID,100,VALID,0.0169808,VALID,19.0987,VALID,276,VALID,0.117932,
2005-05-29, 01:07:00,VALID,917.554,VALID,0,VALID,100,VALID,-0.0169808,VALID,19.0698,VALID,276,VALID,0,
2005-05-29, 01:08:00,VALID,917.568,VALID,0,VALID,100,VALID,-0.0169808,VALID,19.0694,VALID,276,VALID,0.00948661,
2005-05-29, 01:09:00,VALID,917.557,VALID,0,VALID,100,VALID,0,VALID,19.1374,VALID,276,VALID,0.213368,
2005-05-29, 01:10:00,VALID,917.542,VALID,0,VALID,100,VALID,-0.0169808,VALID,19.2214,VALID,276,VALID,0.24858,
2005-05-29, 01:11:00,VALID,917.517,VALID,0,VALID,100,VALID,-0.0169808,VALID,19.2541,VALID,252,VALID,0.495994,
2005-05-29, 01:12:00,VALID,917.484,VALID,0,VALID,100,VALID,0,VALID,19.2147,VALID,186,VALID,0.782366,
2005-05-29, 01:13:00,VALID,917.473,VALID,0,VALID,100,VALID,0,VALID,19.1985,VALID,175,VALID,0.999256,
2005-05-29, 01:14:00,VALID,917.471,VALID,0,VALID,100,VALID,0,VALID,19.1985,VALID,173,VALID,1.19651,
2005-05-29, 01:15:00,VALID,917.485,VALID,0,VALID,100,VALID,-0.0169808,VALID,19.2017,VALID,167,VALID,1.14153,
2005-05-29, 01:16:00,VALID,917.514,VALID,0,VALID,100,VALID,-0.0169808,VALID,19.1896,VALID,171,VALID,0.856027,
2005-05-29, 01:17:00,VALID,917.538,VALID,0,VALID,100,VALID,0,VALID,19.1925,VALID,178,VALID,0.673549,
2005-05-29, 01:18:00,VALID,917.547,VALID,0,VALID,100,VALID,0.0339617,VALID,19.1921,VALID,123,VALID,0.850991,
2005-05-29, 01:19:00,VALID,917.562,VALID,0,VALID,100,VALID,0,VALID,19.2248,VALID,120,VALID,0.907924,
2005-05-29, 01:20:00,VALID,917.565,VALID,0,VALID,100,VALID,0.0169808,VALID,19.2507,VALID,122,VALID,0.719351,
2005-05-29, 01:21:00,VALID,917.551,VALID,0,VALID,100,VALID,0.0169808,VALID,19.3309,VALID,123,VALID,0.463034,
2005-05-29, 01:22:00,VALID,917.513,VALID,0,VALID,100,VALID,0.0169808,VALID,19.3535,VALID,94,VALID,0.776042,
2005-05-29, 01:23:00,VALID,917.473,VALID,0,VALID,100,VALID,0.0169808,VALID,19.3639,VALID,76,VALID,0.697545,
2005-05-29, 01:24:00,VALID,917.424,VALID,0,VALID,100,VALID,0,VALID,19.344,VALID,75,VALID,0.865282,
2005-05-29, 01:25:00,VALID,917.369,VALID,0,VALID,100,VALID,0,VALID,19.3309,VALID,77,VALID,1.00152,
2005-05-29, 01:26:00,VALID,917.321,VALID,0,VALID,100,VALID,0.0339617,VALID,19.3314,VALID,83,VALID,1.17683,
2005-05-29, 01:27:00,VALID,917.285,VALID,0,VALID,100,VALID,0.0169808,VALID,19.318,VALID,75,VALID,1.0016,
2005-05-29, 01:28:00,VALID,917.274,VALID,0,VALID,100,VALID,0.0169808,VALID,19.2924,VALID,71,VALID,0.876603,
2005-05-29, 01:29:00,VALID,917.278,VALID,0,VALID,100,VALID,0,VALID,19.2601,VALID,62,VALID,0.989383,
2005-05-29, 01:30:00,VALID,917.293,VALID,0,VALID,100,VALID,0,VALID,19.2117,VALID,41,VALID,0.869855,
2005-05-29, 01:31:00,VALID,917.283,VALID,0,VALID,100,VALID,0.0169808,VALID,19.1923,VALID,27,VALID,0.915516,
2005-05-29, 01:32:00,VALID,917.282,VALID,0,VALID,100,VALID,0,VALID,19.1501,VALID,44,VALID,0.673018,
2005-05-29, 01:33:00,VALID,917.264,VALID,0,VALID,100,VALID,0,VALID,19.1406,VALID,51,VALID,0.285742,
2005-05-29, 01:34:00,VALID,917.251,VALID,0,VALID,100,VALID,0,VALID,19.1406,VALID,57,VALID,0.003125,
2005-05-29, 01:35:00,VALID,917.228,VALID,0,VALID,100,VALID,0,VALID,19.1307,VALID,57,VALID,0,
2005-05-29, 01:36:00,VALID,917.208,VALID,0,VALID,100,VALID,0,VALID,19.1439,VALID,57,VALID,0.0272436,
2005-05-29, 01:37:00,VALID,917.209,VALID,0,VALID,100,VALID,-0.0169808,VALID,19.1757,VALID,57,VALID,0.327753,
2005-05-29, 01:38:00,VALID,917.212,VALID,0,VALID,100,VALID,-0.0169808,VALID,19.1955,VALID,57,VALID,0.349516,
2005-05-29, 01:39:00,VALID,917.225,VALID,0,VALID,100,VALID,0,VALID,19.2243,VALID,57,VALID,0.503906,
2005-05-29, 01:40:00,VALID,917.256,VALID,0,VALID,100,VALID,0.0169808,VALID,19.2248,VALID,57,VALID,0.599019,
2005-05-29, 01:41:00,VALID,917.277,VALID,0,VALID,100,VALID,0,VALID,19.2343,VALID,57,VALID,0.583097,
2005-05-29, 01:42:00,VALID,917.302,VALID,0,VALID,100,VALID,0.0169808,VALID,19.2442,VALID,57,VALID,0.330611,
2005-05-29, 01:43:00,VALID,917.336,VALID,0,VALID,100,VALID,0.0169808,VALID,19.2179,VALID,57,VALID,0.0892857,
2005-05-29, 01:44:00,VALID,917.366,VALID,0,VALID,100,VALID,0.0169808,VALID,19.2181,VALID,57,VALID,0,
2005-05-29, 01:45:00,VALID,917.398,VALID,0,VALID,100,VALID,0,VALID,19.2149,VALID,57,VALID,0,
2005-05-29, 01:46:00,VALID,917.401,VALID,0,VALID,100,VALID,0,VALID,19.2117,VALID,57,VALID,0.047619,
2005-05-29, 01:47:00,VALID,917.431,VALID,0,VALID,100,VALID,-0.0169808,VALID,19.1858,VALID,57,VALID,0.463601,
2005-05-29, 01:48:00,VALID,917.437,VALID,0,VALID,100,VALID,-0.0169808,VALID,19.1173,VALID,91,VALID,0.648438,
2005-05-29, 01:49:00,VALID,917.455,VALID,0.2,VALID,100,VALID,0,VALID,19.0887,VALID,121,VALID,0.635789,
2005-05-29, 01:50:00,VALID,917.484,VALID,0,VALID,100,VALID,0,VALID,19.0828,VALID,121,VALID,0.412109,
2005-05-29, 01:51:00,VALID,917.496,VALID,0,VALID,100,VALID,-0.0169808,VALID,19.0696,VALID,121,VALID,0.285252,
2005-05-29, 01:52:00,VALID,917.51,VALID,0,VALID,100,VALID,0,VALID,19.0758,VALID,121,VALID,0.458939,
2005-05-29, 01:53:00,VALID,917.501,VALID,0,VALID,100,VALID,0,VALID,19.086,VALID,111,VALID,0.485938,
2005-05-29, 01:54:00,VALID,917.491,VALID,0,VALID,100,VALID,0,VALID,19.0954,VALID,110,VALID,0.44308,
2005-05-29, 01:55:00,VALID,917.491,VALID,0,VALID,100,VALID,-0.0169808,VALID,19.1058,VALID,110,VALID,0.30878,
2005-05-29, 01:56:00,VALID,917.483,VALID,0,VALID,100,VALID,0.0169808,VALID,19.0922,VALID,110,VALID,0.289789,
2005-05-29, 01:57:00,VALID,917.469,VALID,0,VALID,100,VALID,-0.0169808,VALID,19.1153,VALID,101,VALID,0.509811,
2005-05-29, 01:58:00,VALID,917.466,VALID,0,VALID,100,VALID,0,VALID,19.1086,VALID,58,VALID,0.485764,
2005-05-29, 01:59:00,VALID,917.453,VALID,0,VALID,100,VALID,0,VALID,19.0954,VALID,58,VALID,0.167597,
2005-05-29, 02:00:00,VALID,917.449,VALID,0,VALID,100,VALID,0,VALID,19.1155,VALID,58,VALID,0.181212,
2005-05-29, 02:01:00,VALID,917.446,VALID,0,VALID,100,VALID,0,VALID,19.1084,VALID,69,VALID,0.516955,
2005-05-29, 02:02:00,VALID,917.446,VALID,0,VALID,100,VALID,0,VALID,19.1051,VALID,113,VALID,0.65904,
2005-05-29, 02:03:00,VALID,917.471,VALID,0,VALID,100,VALID,0,VALID,19.1118,VALID,115,VALID,0.674805,
2005-05-29, 02:04:00,VALID,917.485,VALID,0,VALID,100,VALID,0.0169808,VALID,19.1379,VALID,115,VALID,0.516006,
2005-05-29, 02:05:00,VALID,917.484,VALID,0,VALID,100,VALID,0,VALID,19.1635,VALID,115,VALID,0.336846,
2005-05-29, 02:06:00,VALID,917.481,VALID,0,VALID,100,VALID,0,VALID,19.1791,VALID,115,VALID,0.264881,
2005-05-29, 02:07:00,VALID,917.473,VALID,0,VALID,100,VALID,0,VALID,19.2216,VALID,115,VALID,0.00747283,
2005-05-29, 02:08:00,VALID,917.422,VALID,0,VALID,100,VALID,-0.0169808,VALID,19.244,VALID,115,VALID,0.00457317,
2005-05-29, 02:09:00,VALID,917.381,VALID,0,VALID,100,VALID,0,VALID,19.2698,VALID,115,VALID,0.204799,
2005-05-29, 02:10:00,VALID,917.339,VALID,0,VALID,100,VALID,-0.0169808,VALID,19.2869,VALID,115,VALID,0.262957,
2005-05-29, 02:11:00,VALID,917.297,VALID,0,VALID,100,VALID,0,VALID,19.2825,VALID,115,VALID,0.229651,
2005-05-29, 02:12:00,VALID,917.254,VALID,0,VALID,100,VALID,0.0339617,VALID,19.2986,VALID,115,VALID,0.188643,
2005-05-29, 02:13:00,VALID,917.207,VALID,0,VALID,100,VALID,0,VALID,19.3023,VALID,115,VALID,0.21742,
2005-05-29, 02:14:00,VALID,917.172,VALID,0,VALID,100,VALID,0,VALID,19.2725,VALID,115,VALID,0.188772,
2005-05-29, 02:15:00,VALID,917.114,VALID,0,VALID,100,VALID,0,VALID,19.2926,VALID,115,VALID,0.275799,
2005-05-29, 02:16:00,VALID,917.073,VALID,0,VALID,100,VALID,0,VALID,19.3048,VALID,115,VALID,0.272461,
2005-05-29, 02:17:00,VALID,917.043,VALID,0,VALID,100,VALID,0,VALID,19.3048,VALID,115,VALID,0.450639,
2005-05-29, 02:18:00,VALID,917.016,VALID,0,VALID,100,VALID,0,VALID,19.2658,VALID,115,VALID,0.504836,
2005-05-29, 02:19:00,VALID,916.992,VALID,0,VALID,100,VALID,0,VALID,19.2405,VALID,115,VALID,0.310632,
2005-05-29, 02:20:00,VALID,916.971,VALID,0,VALID,100,VALID,0.0169808,VALID,19.2564,VALID,115,VALID,0.0161966,
2005-05-29, 02:21:00,VALID,916.946,VALID,0,VALID,100,VALID,-0.0169808,VALID,19.2695,VALID,115,VALID,0.00114329,
2005-05-29, 02:22:00,VALID,916.92,VALID,0,VALID,100,VALID,0.0509425,VALID,19.2661,VALID,115,VALID,0.0887153,
2005-05-29, 02:23:00,VALID,916.907,VALID,0,VALID,100,VALID,0.0169808,VALID,19.2628,VALID,115,VALID,0.138849,
2005-05-29, 02:24:00,VALID,916.892,VALID,0,VALID,100,VALID,0.0169808,VALID,19.2502,VALID,51,VALID,0.319965,
2005-05-29, 02:25:00,VALID,916.88,VALID,0,VALID,100,VALID,0.0169808,VALID,19.2599,VALID,32,VALID,0.0682664,
2005-05-29, 02:26:00,VALID,916.87,VALID,0,VALID,100,VALID,0,VALID,19.2698,VALID,32,VALID,0,
2005-05-29, 02:27:00,VALID,916.852,VALID,0,VALID,100,VALID,0,VALID,19.2859,VALID,32,VALID,0.148268,
2005-05-29, 02:28:00,VALID,916.844,VALID,0,VALID,100,VALID,0,VALID,19.3018,VALID,32,VALID,0.405342,
2005-05-29, 02:29:00,VALID,916.839,VALID,0,VALID,100,VALID,0,VALID,19.3214,VALID,32,VALID,0.60992,
2005-05-29, 02:30:00,VALID,916.826,VALID,0,VALID,100,VALID,0.0169808,VALID,19.2917,VALID,28,VALID,0.615945,
2005-05-29, 02:31:00,VALID,916.79,VALID,0,VALID,100,VALID,0,VALID,19.2762,VALID,28,VALID,0.349382,
2005-05-29, 02:32:00,VALID,916.776,VALID,0,VALID,100,VALID,0,VALID,19.2631,VALID,28,VALID,0.317773,
2005-05-29, 02:33:00,VALID,916.765,VALID,0,VALID,100,VALID,0.0339617,VALID,19.2628,VALID,28,VALID,0,
2005-05-29, 02:34:00,VALID,916.748,VALID,0,VALID,100,VALID,0,VALID,19.2564,VALID,28,VALID,0,
2005-05-29, 02:35:00,VALID,916.712,VALID,0,VALID,100,VALID,0,VALID,19.2504,VALID,28,VALID,0.0244792,
2005-05-29, 02:36:00,VALID,916.692,VALID,0,VALID,100,VALID,0,VALID,19.2499,VALID,42,VALID,0.332889,
2005-05-29, 02:37:00,VALID,916.655,VALID,0,VALID,100,VALID,0.0339617,VALID,19.2628,VALID,112,VALID,0.659339,
2005-05-29, 02:38:00,VALID,916.631,VALID,0,VALID,100,VALID,0,VALID,19.2532,VALID,118,VALID,0.602134,
2005-05-29, 02:39:00,VALID,916.608,VALID,0,VALID,100,VALID,0.0169808,VALID,19.2591,VALID,118,VALID,0.583651,
2005-05-29, 02:40:00,VALID,916.593,VALID,0,VALID,100,VALID,0,VALID,19.2725,VALID,118,VALID,0.496366,
2005-05-29, 02:41:00,VALID,916.568,VALID,0,VALID,100,VALID,0,VALID,19.2889,VALID,118,VALID,0.306176,
2005-05-29, 02:42:00,VALID,916.552,VALID,0,VALID,100,VALID,0,VALID,19.3021,VALID,118,VALID,0.205256,
2005-05-29, 02:43:00,VALID,916.539,VALID,0,VALID,100,VALID,0,VALID,19.308,VALID,118,VALID,0.182106,
2005-05-29, 02:44:00,VALID,916.545,VALID,0,VALID,100,VALID,0,VALID,19.3344,VALID,118,VALID,0.350836,
2005-05-29, 02:45:00,VALID,916.53,VALID,0,VALID,100,VALID,0.0169808,VALID,19.3403,VALID,118,VALID,0.331395,
2005-05-29, 02:46:00,VALID,916.531,VALID,0,VALID,100,VALID,0,VALID,19.3597,VALID,118,VALID,0.43859,
2005-05-29, 02:47:00,VALID,916.537,VALID,0,VALID,100,VALID,0,VALID,19.3796,VALID,118,VALID,0.501776,
2005-05-29, 02:48:00,VALID,916.539,VALID,0,VALID,100,VALID,0,VALID,19.3855,VALID,118,VALID,0.359193,
2005-05-29, 02:49:00,VALID,916.541,VALID,0,VALID,100,VALID,0,VALID,19.4086,VALID,118,VALID,0.333681,
2005-05-29, 02:50:00,VALID,916.549,VALID,0,VALID,100,VALID,0.0169808,VALID,19.4248,VALID,122,VALID,0.76598,
2005-05-29, 02:51:00,VALID,916.575,VALID,0,VALID,100,VALID,0.0169808,VALID,19.4248,VALID,119,VALID,0.78125,
2005-05-29, 02:52:00,VALID,916.587,VALID,0,VALID,100,VALID,0,VALID,19.4466,VALID,111,VALID,0.882431,
2005-05-29, 02:53:00,VALID,916.612,VALID,0,VALID,100,VALID,0,VALID,19.4695,VALID,89,VALID,1.27009,
2005-05-29, 02:54:00,VALID,916.627,VALID,0,VALID,100,VALID,0.0169808,VALID,19.4764,VALID,104,VALID,1.61547,
2005-05-29, 02:55:00,VALID,916.643,VALID,0,VALID,100,VALID,0.0339617,VALID,19.4469,VALID,106,VALID,1.5202,
2005-05-29, 02:56:00,VALID,916.64,VALID,0,VALID,100,VALID,-0.0169808,VALID,19.4404,VALID,116,VALID,0.936928,
2005-05-29, 02:57:00,VALID,916.624,VALID,0,VALID,100,VALID,-0.0169808,VALID,19.4536,VALID,101,VALID,1.05868,
2005-05-29, 02:58:00,VALID,916.598,VALID,0,VALID,100,VALID,0,VALID,19.434,VALID,106,VALID,1.29669,
2005-05-29, 02:59:00,VALID,916.565,VALID,0,VALID,100,VALID,0,VALID,19.4116,VALID,111,VALID,1.21493,
2005-05-29, 03:00:00,VALID,916.548,VALID,0,VALID,100,VALID,0.0169808,VALID,19.395,VALID,100,VALID,1.0106,
2005-05-29, 03:01:00,VALID,916.545,VALID,0,VALID,100,VALID,0,VALID,19.3726,VALID,119,VALID,1.03032,
2005-05-29, 03:02:00,VALID,916.561,VALID,0,VALID,100,VALID,0,VALID,19.3659,VALID,112,VALID,1.18698,
2005-05-29, 03:03:00,VALID,916.591,VALID,0,VALID,100,VALID,0,VALID,19.3696,VALID,111,VALID,0.795632,
2005-05-29, 03:04:00,VALID,916.632,VALID,0,VALID,100,VALID,0.0169808,VALID,19.3567,VALID,130,VALID,1.25692,
2005-05-29, 03:05:00,VALID,916.657,VALID,0,VALID,100,VALID,0,VALID,19.3498,VALID,133,VALID,1.73896,
2005-05-29, 03:06:00,VALID,916.672,VALID,0,VALID,100,VALID,0,VALID,19.359,VALID,129,VALID,1.36119,
2005-05-29, 03:07:00,VALID,916.685,VALID,0,VALID,100,VALID,-0.0339617,VALID,19.383,VALID,134,VALID,1.7133,
2005-05-29, 03:08:00,VALID,916.673,VALID,0,VALID,100,VALID,-0.0849042,VALID,19.4029,VALID,126,VALID,1.38039,
2005-05-29, 03:09:00,VALID,916.667,VALID,0,VALID,100,VALID,-0.0849042,VALID,19.4121,VALID,113,VALID,0.978924,
2005-05-29, 03:10:00,VALID,916.632,VALID,0,VALID,100,VALID,-0.0679233,VALID,19.4285,VALID,121,VALID,1.18586,
2005-05-29, 03:11:00,VALID,916.62,VALID,0,VALID,100,VALID,-0.0849042,VALID,19.4486,VALID,131,VALID,1.06441,
2005-05-29, 03:12:00,VALID,916.613,VALID,0,VALID,100,VALID,-0.0679233,VALID,19.4613,VALID,139,VALID,0.796094,
2005-05-29, 03:13:00,VALID,916.617,VALID,0,VALID,100,VALID,-0.101885,VALID,19.4613,VALID,141,VALID,0.787427,
2005-05-29, 03:14:00,VALID,916.64,VALID,0,VALID,100,VALID,-0.0679233,VALID,19.4576,VALID,134,VALID,1.16685,
2005-05-29, 03:15:00,VALID,916.639,VALID,0,VALID,100,VALID,-0.0679233,VALID,19.4513,VALID,140,VALID,1.13243,
2005-05-29, 03:16:00,VALID,916.634,VALID,0,VALID,100,VALID,-0.0849042,VALID,19.4647,VALID,152,VALID,1.12075,
2005-05-29, 03:17:00,VALID,916.637,VALID,0,VALID,100,VALID,-0.101885,VALID,19.4739,VALID,132,VALID,0.780401,
2005-05-29, 03:18:00,VALID,916.617,VALID,0,VALID,100,VALID,-0.101885,VALID,19.4705,VALID,110,VALID,0.820135,
2005-05-29, 03:19:00,VALID,916.606,VALID,0,VALID,100,VALID,-0.101885,VALID,19.4811,VALID,113,VALID,0.949219,
2005-05-29, 03:20:00,VALID,916.597,VALID,0,VALID,100,VALID,-0.101885,VALID,19.4705,VALID,103,VALID,0.834449,
2005-05-29, 03:21:00,VALID,916.583,VALID,0,VALID,100,VALID,-0.0849042,VALID,19.461,VALID,89,VALID,0.509301,
2005-05-29, 03:22:00,VALID,916.589,VALID,0,VALID,100,VALID,0,VALID,19.4598,VALID,59,VALID,0.343555,
2005-05-29, 03:23:00,VALID,916.595,VALID,0,VALID,100,VALID,0.0339617,VALID,19.463,VALID,89,VALID,0.321514,
2005-05-29, 03:24:00,VALID,916.598,VALID,0,VALID,100,VALID,0.0169808,VALID,19.4529,VALID,90,VALID,0.0238009,
2005-05-29, 03:25:00,VALID,916.594,VALID,0,VALID,100,VALID,0,VALID,19.4496,VALID,90,VALID,0.212391,
2005-05-29, 03:26:00,VALID,916.599,VALID,0,VALID,100,VALID,0,VALID,19.4404,VALID,90,VALID,0.114757,
2005-05-29, 03:27:00,VALID,916.606,VALID,0,VALID,100,VALID,0,VALID,19.4367,VALID,90,VALID,0.0902158,
2005-05-29, 03:28:00,VALID,916.604,VALID,0,VALID,100,VALID,0,VALID,19.4402,VALID,90,VALID,0.220526,
2005-05-29, 03:29:00,VALID,916.606,VALID,0,VALID,100,VALID,0,VALID,19.434,VALID,90,VALID,0.117001,
2005-05-29, 03:30:00,VALID,916.598,VALID,0,VALID,100,VALID,0,VALID,19.4307,VALID,90,VALID,0.107143,
2005-05-29, 03:31:00,VALID,916.582,VALID,0,VALID,100,VALID,0.0169808,VALID,19.4305,VALID,90,VALID,0.20846,
2005-05-29, 03:32:00,VALID,916.57,VALID,0,VALID,100,VALID,0.0509425,VALID,19.4404,VALID,90,VALID,0.00968071,
2005-05-29, 03:33:00,VALID,916.56,VALID,0,VALID,100,VALID,0,VALID,19.4275,VALID,90,VALID,0.0721726,
2005-05-29, 03:34:00,VALID,916.554,VALID,0,VALID,100,VALID,0.0169808,VALID,19.3945,VALID,36,VALID,0.456692,
2005-05-29, 03:35:00,VALID,916.547,VALID,0,VALID,100,VALID,0,VALID,19.4146,VALID,356,VALID,0.354469,
2005-05-29, 03:36:00,VALID,916.547,VALID,0,VALID,100,VALID,0,VALID,19.3918,VALID,295,VALID,0.705171,
2005-05-29, 03:37:00,VALID,916.548,VALID,0,VALID,100,VALID,-0.0849042,VALID,19.3671,VALID,288,VALID,0.492374,
2005-05-29, 03:38:00,VALID,916.556,VALID,0,VALID,100,VALID,-0.101885,VALID,19.3711,VALID,288,VALID,0.382102,
2005-05-29, 03:39:00,VALID,916.592,VALID,0,VALID,100,VALID,-0.101885,VALID,19.3577,VALID,288,VALID,0.686756,
2005-05-29, 03:40:00,VALID,916.613,VALID,0,VALID,100,VALID,-0.101885,VALID,19.3741,VALID,271,VALID,0.846418,
2005-05-29, 03:41:00,VALID,916.65,VALID,0,VALID,100,VALID,-0.0849042,VALID,19.3942,VALID,269,VALID,0.859766,
2005-05-29, 03:42:00,VALID,916.677,VALID,0,VALID,100,VALID,-0.0849042,VALID,19.4131,VALID,269,VALID,0.693677,
2005-05-29, 03:43:00,VALID,916.691,VALID,0,VALID,100,VALID,-0.0849042,VALID,19.4089,VALID,269,VALID,0.430259,
2005-05-29, 03:44:00,VALID,916.705,VALID,0,VALID,100,VALID,-0.0849042,VALID,19.4193,VALID,269,VALID,0.392756,
2005-05-29, 03:45:00,VALID,916.71,VALID,0,VALID,100,VALID,-0.0679233,VALID,19.4193,VALID,269,VALID,0.0788194,
2005-05-29, 03:46:00,VALID,916.714,VALID,0,VALID,100,VALID,-0.0849042,VALID,19.3997,VALID,279,VALID,0.583519,